WESTERN HEAD, Nova Scotia

10:02 PM AST on December 05, 2016 (GMT -0400)
Western Head

Weather History for CWWE - October, 2013

Change the Weather History Date:

Monday, October 21, 2013

  Actual Average Record
Temperature  
Mean Temperature 48 °F -  
Max Temperature 59 °F - - ()
Min Temperature 38 °F - - ()
Degree Days  
Heating Degree Days 16    
Moisture  
Dew Point 36 °F    
Average Humidity 63    
Maximum Humidity 89    
Minimum Humidity 24    
Precipitation  
Precipitation 0.00 in - - ()
Sea Level Pressure  
Sea Level Pressure 29.97 in    
Wind  
Wind Speed 8 mph ()    
Max Wind Speed 17 mph    
Max Gust Speed 25 mph    
T = Trace of Precipitation, MM = Missing Value Source: Averaged Metar Reports

Daily Weather History Graph

Daily Weather History Graph

Search for Another Location

Airport or City:

Trip Planner

Search our weather history database for the weather conditions in past years. The results will help you decide how hot, cold, wet, or windy it might be!

Date:

Astronomy

Oct. 21, 2013 Rise Set
Actual Time 7:41 AM ADT 6:24 PM ADT
Civil Twilight 7:11 AM ADT 6:54 PM ADT
Nautical Twilight 6:38 AM ADT 7:27 PM ADT
Astronomical Twilight 6:04 AM ADT 8:00 PM ADT
Moon 8:09 PM ADT (10/21) 10:16 AM ADT (10/21)
Length of Visible Light 11h 42m
Length of Day
10h 43m
Waning Gibbous, 93% of the Moon is Illuminated
Oct 21
Waning Gibbous
Oct 26
Last Quarter
Nov 3
New
Nov 10
First Quarter
Nov 17
Full

Hourly Weather History & Observations

Time (ADT) Temp. Windchill Dew Point Humidity Pressure Visibility Wind Dir Wind Speed Gust Speed Precip Events Conditions
12:00 AM 48 °F - 45 °F 84% 29.84 in - West 9.2 mph - -  
12:00 AM 47.8 °F - 44.6 °F 89% 29.84 in - West 9.2 mph - N/A   Unknown
1:00 AM 47.8 °F - 42.3 °F 81% 29.85 in - West 10.4 mph - N/A   Unknown
2:00 AM 45.9 °F 41.7 °F 40.6 °F 82% 29.87 in - West 8.1 mph - N/A   Unknown
3:00 AM 43 °F - 38 °F 76% 29.89 in - West 5.8 mph - -  
3:00 AM 43.2 °F 39.7 °F 37.9 °F 82% 29.89 in - West 5.8 mph - N/A   Unknown
4:00 AM 42.4 °F 38.8 °F 36.1 °F 78% 29.91 in - West 5.8 mph - N/A   Unknown
5:00 AM 42.6 °F 37.8 °F 36.5 °F 79% 29.92 in - WSW 8.1 mph - N/A   Unknown
6:00 AM 42 °F - 37 °F 76% 29.94 in - WSW 6.9 mph - -  
6:00 AM 42.3 °F 37.9 °F 37.0 °F 82% 29.94 in - WSW 6.9 mph - N/A   Unknown
7:00 AM 41.9 °F 36.9 °F 37.2 °F 83% 29.94 in - WSW 8.1 mph - N/A   Unknown
8:00 AM 40.5 °F 35.8 °F 36.0 °F 84% 29.96 in - West 6.9 mph - N/A   Unknown
9:00 AM 46 °F - 36 °F 59% 29.98 in - West 10.4 mph - -  
9:00 AM 46.2 °F 41.2 °F 36.1 °F 68% 29.98 in - West 10.4 mph - N/A   Unknown
10:00 AM 50.7 °F - 37.2 °F 60% 29.99 in - West 11.5 mph 19.6 mph N/A   Unknown
11:00 AM 54.1 °F - 37.0 °F 52% 29.99 in - West 16.1 mph 23.0 mph N/A   Unknown
12:00 PM 56 °F - 34 °F 31% 29.99 in - West 17.3 mph - -  
12:00 PM 55.6 °F - 34.0 °F 44% 29.99 in - West 17.3 mph 24.2 mph N/A   Unknown
1:00 PM 58.5 °F - 34.2 °F 40% 29.98 in - West 11.5 mph 19.6 mph N/A   Unknown
2:00 PM 57.7 °F - 31.5 °F 37% 29.97 in - West 17.3 mph 25.3 mph N/A   Unknown
3:00 PM 59 °F - 32 °F 24% 29.97 in - West 16.1 mph - -  
3:00 PM 58.8 °F - 31.8 °F 36% 29.97 in - West 16.1 mph 21.9 mph N/A   Unknown
4:00 PM 59.0 °F - 31.6 °F 36% 29.99 in - West 11.5 mph - N/A   Unknown
5:00 PM 57.0 °F - 31.3 °F 38% 29.99 in - West 9.2 mph - N/A   Unknown
6:00 PM 52 °F - 32 °F 34% 30.01 in - West 8.1 mph - -  
6:00 PM 52.3 °F - 31.8 °F 46% 30.01 in - West 8.1 mph - N/A   Unknown
7:00 PM 46.2 °F 42.7 °F 34.2 °F 63% 30.04 in - WNW 6.9 mph - N/A   Unknown
8:00 PM 42.6 °F 39.9 °F 34.2 °F 72% 30.05 in - West 4.6 mph - N/A   Unknown
9:00 PM 41 °F - 34 °F 69% 30.06 in - West 5.8 mph - -  
9:00 PM 41.4 °F 37.6 °F 34.3 °F 76% 30.06 in - West 5.8 mph - N/A   Unknown
10:00 PM 38.3 °F 34.8 °F 32.9 °F 81% 30.06 in - WSW 4.6 mph - N/A   Unknown
11:00 PM 40.5 °F 36.5 °F 36.0 °F 84% 30.08 in - West 5.8 mph - N/A   Unknown